Weather History for KMCB - May, 2015

Change the Weather History Date:

Monday, May 18, 2015

  Actual Average Record
Temperature  
Mean Temperature 76 °F -  
Max Temperature 84 °F 84 °F 93 °F (1951)
Min Temperature 69 °F 61 °F 46 °F (2011)
Cooling Degree Days 11    
Growing Degree Days 26 (Base 50)    
Moisture  
Dew Point 71 °F    
Average Humidity 92    
Maximum Humidity 100    
Minimum Humidity 72    
Precipitation  
Precipitation 0.58 in - - ()
Sea Level Pressure  
Sea Level Pressure 30.16 in    
Wind  
Wind Speed 6 mph (ESE)    
Max Wind Speed 16 mph    
Max Gust Speed 31 mph    
Visibility 8 miles    
Events Rain , Thunderstorm    
Averages and records for this station are not official NWS values.
T = Trace of Precipitation, MM = Missing Value Source: NWS Daily Summary

Daily Weather History Graph

Daily Weather History Graph

Search for Another Location

Airport or City:

Trip Planner

Search our weather history database for the weather conditions in past years. The results will help you decide how hot, cold, wet, or windy it might be!

Date:

Astronomy

May. 18, 2015 Rise Set
Actual Time 6:04 AM CDT 7:52 PM CDT
Civil Twilight 5:37 AM CDT 8:19 PM CDT
Nautical Twilight 5:05 AM CDT 8:51 PM CDT
Astronomical Twilight 4:31 AM CDT 9:25 PM CDT
Moon 6:38 AM CDT (5/18) 8:33 PM CDT (5/18)
Length of Visible Light 14h 41m
Length of Day
13h 48m
New Moon, 0% of the Moon is Illuminated
May 18
New Moon
May 25
First Quarter
Jun 2
Full
Jun 9
Last Quarter
Jun 16
New

Hourly Weather History & Observations

Time (CDT) Temp. Heat Index Dew Point Humidity Pressure Visibility Wind Dir Wind Speed Gust Speed Precip Events Conditions
12:53 AM 75.0 °F - 75.0 °F 100% 30.13 in 10.0 mi ESE 3.5 mph - N/A   Overcast
1:53 AM 75.9 °F - 73.9 °F 94% 30.12 in 8.0 mi SE 6.9 mph - N/A   Overcast
2:53 AM 75.9 °F - 75.0 °F 97% 30.11 in 5.0 mi SE 5.8 mph - N/A   Overcast
3:53 AM 75.0 °F - 73.9 °F 96% 30.09 in 7.0 mi ESE 5.8 mph - N/A   Overcast
4:23 AM 75.0 °F - 73.9 °F 96% 30.11 in 8.0 mi SE 4.6 mph - N/A   Overcast
4:53 AM 75.9 °F - 73.9 °F 94% 30.10 in 9.0 mi SSE 5.8 mph - N/A   Overcast
5:31 AM 75.0 °F - 73.9 °F 96% 30.12 in 9.0 mi SSE 5.8 mph - N/A   Overcast
5:53 AM 75.0 °F - 73.9 °F 96% 30.11 in 8.0 mi SSE 6.9 mph - N/A   Overcast
6:08 AM 75.0 °F - 73.9 °F 96% 30.13 in 8.0 mi SSE 6.9 mph - N/A   Overcast
6:53 AM 75.9 °F - 73.9 °F 94% 30.13 in 7.0 mi SE 5.8 mph - N/A   Overcast
7:53 AM 75.9 °F - 73.9 °F 94% 30.14 in 9.0 mi SSE 6.9 mph - N/A   Overcast
8:44 AM 79.0 °F - 73.9 °F 84% 30.17 in 10.0 mi SSE 8.1 mph - N/A   Mostly Cloudy
8:53 AM 80.1 °F 84.5 °F 73.9 °F 81% 30.15 in 10.0 mi SSE 9.2 mph - N/A   Mostly Cloudy
9:15 AM 79.0 °F - 73.9 °F 84% 30.17 in 10.0 mi SSE 8.1 mph - N/A   Scattered Clouds
9:26 AM 80.1 °F 84.5 °F 73.9 °F 81% 30.16 in 10.0 mi SSE 8.1 mph - N/A   Mostly Cloudy
9:53 AM 81.0 °F 86.2 °F 73.9 °F 79% 30.15 in 10.0 mi SSE 6.9 mph - N/A   Overcast
10:18 AM 81.0 °F 85.8 °F 73.0 °F 77% 30.17 in 10.0 mi SSE 6.9 mph - N/A   Mostly Cloudy
10:53 AM 82.9 °F 88.8 °F 73.0 °F 72% 30.15 in 10.0 mi SSE 8.1 mph - N/A   Clear
11:22 AM 82.9 °F 88.8 °F 73.0 °F 72% 30.19 in 10.0 mi ESE 6.9 mph - N/A Thunderstorm Scattered Clouds
11:46 AM 81.0 °F 85.8 °F 73.0 °F 77% 30.19 in 10.0 mi East 3.5 mph - 0.00 in Rain , Thunderstorm Light Thunderstorms and Rain
11:53 AM 80.1 °F 83.8 °F 72.0 °F 76% 30.18 in 10.0 mi North - - 0.00 in Rain , Thunderstorm Light Thunderstorms and Rain
12:01 PM 72.0 °F - 68.0 °F 87% 30.21 in 1.8 mi WNW 13.8 mph 27.6 mph 0.11 in Rain , Thunderstorm Heavy Thunderstorms and Rain
12:04 PM 72.0 °F - 69.1 °F 91% 30.22 in 1.0 mi West 13.8 mph 27.6 mph 0.19 in Rain , Thunderstorm Heavy Rain
12:07 PM 71.1 °F - 69.1 °F 93% 30.22 in 0.8 mi West 11.5 mph 23.0 mph 0.30 in Rain , Thunderstorm Heavy Thunderstorms and Rain
12:15 PM 70.0 °F - 69.1 °F 97% 30.22 in 1.0 mi WNW 10.4 mph 16.1 mph 0.36 in Rain , Thunderstorm Light Thunderstorms and Rain
12:19 PM 70.0 °F - 69.1 °F 97% 30.20 in 3.0 mi NNW 16.1 mph - 0.37 in Rain , Thunderstorm Light Thunderstorms and Rain
12:28 PM 70.0 °F - 69.1 °F 97% 30.20 in 4.0 mi NNW 13.8 mph 31.1 mph 0.39 in Rain , Thunderstorm Rain
12:35 PM 70.0 °F - 69.1 °F 97% 30.21 in 5.0 mi NW 9.2 mph 21.9 mph 0.40 in Rain , Thunderstorm Light Rain
12:43 PM 70.0 °F - 70.0 °F 100% 30.22 in 10.0 mi East 4.6 mph - 0.41 in Rain , Thunderstorm Light Rain
12:53 PM 70.0 °F - 70.0 °F 100% 30.20 in 5.0 mi Variable 4.6 mph - 0.42 in Rain , Thunderstorm Rain
1:09 PM 70.0 °F - 69.1 °F 97% 30.21 in 2.5 mi North 5.8 mph - 0.07 in Rain Rain
1:19 PM 70.0 °F - 69.1 °F 97% 30.21 in 5.0 mi North 6.9 mph - 0.09 in Rain Light Rain
1:49 PM 71.6 °F - 69.8 °F 94% 30.21 in 10.0 mi North 6.9 mph - 0.09 in Rain Light Rain
1:53 PM 71.1 °F - 70.0 °F 96% 30.20 in 10.0 mi Variable 3.5 mph - 0.09 in Rain Light Rain
2:11 PM 71.1 °F - 70.0 °F 96% 30.21 in 9.0 mi Variable 4.6 mph - 0.02 in Rain Light Rain
2:53 PM 71.1 °F - 70.0 °F 96% 30.21 in 10.0 mi Calm Calm - 0.03 in Rain Light Rain
3:53 PM 71.1 °F - 70.0 °F 96% 30.20 in 10.0 mi East 3.5 mph - 0.03 in Rain Light Rain
4:53 PM 72.0 °F - 70.0 °F 93% 30.18 in 10.0 mi Calm Calm - 0.01 in   Mostly Cloudy
5:53 PM 72.0 °F - 70.0 °F 93% 30.13 in 10.0 mi SSW 3.5 mph - N/A   Partly Cloudy
6:53 PM 71.1 °F - 70.0 °F 96% 30.08 in 10.0 mi SSE 6.9 mph - N/A   Partly Cloudy
7:53 PM 70.0 °F - 69.1 °F 97% 30.07 in 10.0 mi Calm Calm - N/A   Clear
8:36 PM 70.0 °F - 69.1 °F 97% 30.10 in 10.0 mi NNW 3.5 mph - N/A   Scattered Clouds
8:45 PM 70.0 °F - 69.1 °F 97% 30.11 in 10.0 mi North 6.9 mph - N/A   Mostly Cloudy
8:53 PM 70.0 °F - 69.1 °F 97% 30.11 in 10.0 mi NNW 4.6 mph - N/A   Mostly Cloudy
9:13 PM 72.0 °F - 69.1 °F 91% 30.15 in 10.0 mi North 9.2 mph - N/A   Mostly Cloudy
9:46 PM 70.0 °F - 69.1 °F 97% 30.16 in 10.0 mi North 6.9 mph - N/A   Overcast
9:53 PM 70.0 °F - 69.1 °F 97% 30.15 in 10.0 mi North 4.6 mph - N/A   Overcast
10:53 PM 70.0 °F - 69.1 °F 97% 30.15 in 10.0 mi NE 3.5 mph - N/A   Overcast
11:32 PM 70.0 °F - 69.1 °F 97% 30.16 in 10.0 mi Calm Calm - N/A   Scattered Clouds
11:53 PM 69.1 °F - 69.1 °F 100% 30.14 in 10.0 mi NE 3.5 mph - N/A   Clear